Location: Unspecified
(0.0000°N, 0.0000°E)
Time: 07:14:08
(UTC+00:00)

Vanguard 1 Rocket - Pass Details

Date: 06 December 2022
Orbit: 651 x 4224 km, 34.3° (Epoch: 04 February)

Event Time Altitude Azimuth Distance (km) Brightness Sun altitude
Rises 00:03:32 0° 238° (WSW) 7,064 12.1 -67.3°
Reaches altitude 10° 00:09:07 10° 240° (WSW) 5,477 11.4 -67.1°
Enters shadow 00:10:27 13° 241° (WSW) 5,081 11.2 -67.0°
